Location: Bidwell Hollow
(37.7387°N, 90.1707°W)
Time: 02:28:52
(UTC+00:00)

Vanguard 2 - All Passes

Search period start: 14 May 2026 00:00
Search period end: 24 May 2026 00:00
Orbit: 553 x 2895 km, 32.9° (Epoch: 13 May)

Date Brightness Start Highest point End Pass type
(mag) Time Alt. Az. Time Alt. Az. Time Alt. Az.
14 May - 05:54:27 10° SSW 06:08:15 34° SE 06:22:27 10° E visible
14 May - 08:02:05 10° SW 08:19:09 60° SSE 08:33:57 10° E visible
14 May - 10:13:26 10° W 10:30:52 73° S 10:43:14 10° E visible
14 May - 12:26:29 10° W 12:41:28 59° SSW 12:50:56 10° SE daylight
14 May - 14:40:33 10° W 14:49:32 25° SW 14:55:52 10° S daylight
15 May - 04:03:46 10° SSE 04:10:16 14° SE 04:17:13 10° ESE visible
15 May - 06:05:02 10° SSW 06:19:34 40° SE 06:34:39 10° E visible
15 May - 08:13:30 10° WSW 08:30:48 65° SSE 08:45:44 10° E visible
15 May - 10:25:12 10° W 10:42:36 73° S 10:54:56 10° ESE visible
15 May - 12:38:20 10° W 12:52:58 53° SSW 13:02:21 10° SE daylight
15 May - 14:53:09 10° W 15:00:39 19° SW 15:06:17 10° S daylight
16 May - 04:12:11 10° S 04:21:22 19° SE 04:31:36 10° E visible
16 May - 06:15:54 10° SW 06:30:56 46° SSE 06:46:41 10° E visible
16 May - 08:25:01 10° WSW 08:42:28 70° SSE 08:57:30 10° E visible
16 May - 10:36:59 10° W 10:54:19 71° S 11:06:35 10° ESE daylight
16 May - 12:50:14 10° W 13:04:23 46° SSW 13:13:38 10° SE daylight
16 May - 15:06:26 10° WSW 15:11:41 14° SW 15:16:00 10° SSW daylight
17 May - 04:21:45 10° S 04:32:29 24° SE 04:44:48 10° E visible
17 May - 06:26:58 10° SW 06:42:23 53° SSE 06:58:36 10° E visible
17 May - 08:36:38 10° WSW 08:54:11 73° S 09:09:14 10° E visible
17 May - 10:48:46 10° W 11:05:59 68° SSW 11:18:11 10° ESE daylight
17 May - 13:02:12 10° W 13:15:41 39° SW 13:24:46 10° SSE daylight
18 May - 04:31:55 10° SSW 04:43:37 30° SE 04:57:27 10° E visible
18 May - 06:38:12 10° SW 06:53:52 59° SSE 07:10:26 10° E visible
18 May - 08:48:18 10° WSW 09:05:55 74° S 09:20:58 10° E visible
18 May - 11:00:34 10° W 11:17:36 64° SSW 11:29:43 10° ESE daylight
18 May - 13:14:18 10° W 13:26:53 33° SW 13:35:42 10° SSE daylight
19 May - 04:42:26 10° SSW 04:54:48 36° SE 05:09:46 10° E visible
19 May - 06:49:34 10° WSW 07:05:26 64° SSE 07:22:15 10° E visible
19 May - 09:00:02 10° W 09:17:39 75° S 09:32:41 10° E visible
19 May - 11:12:23 10° W 11:29:09 59° SSW 11:41:09 10° SE daylight
19 May - 13:26:37 10° W 13:38:01 27° SW 13:46:21 10° S daylight
20 May - 02:51:37 10° SSE 02:57:36 14° SE 03:04:25 10° ESE visible
20 May - 04:53:15 10° SSW 05:06:02 43° SE 05:21:51 10° E visible
20 May - 07:01:04 10° WSW 07:17:03 69° SSE 07:34:01 10° E visible
20 May - 09:11:47 10° W 09:29:23 74° S 09:44:20 10° ESE visible
20 May - 11:24:13 10° W 11:40:36 53° SSW 11:52:28 10° SE daylight
20 May - 13:39:17 10° W 13:49:04 21° SW 13:56:37 10° S daylight
21 May - 03:00:37 10° S 03:08:36 19° SE 03:18:19 10° E visible
21 May - 05:04:17 10° SW 05:17:22 49° SSE 05:33:48 10° E visible
21 May - 07:12:38 10° WSW 07:28:44 72° S 07:45:46 10° E visible
21 May - 09:23:32 10° W 09:41:05 71° S 09:55:58 10° ESE visible
21 May - 11:36:08 10° W 11:51:58 46° SSW 12:03:39 10° SE daylight
21 May - 13:52:36 10° W 14:00:03 16° SW 14:06:14 10° SSW daylight
22 May - 03:10:32 10° S 03:19:37 25° SE 03:31:17 10° E visible
22 May - 05:15:28 10° SW 05:28:46 55° SSE 05:45:41 10° E visible
22 May - 07:24:16 10° WSW 07:40:27 74° S 07:57:31 10° E visible
22 May - 09:35:18 10° W 09:52:44 67° SSW 10:07:31 10° ESE visible
22 May - 11:48:08 10° W 12:03:13 40° SW 12:14:38 10° SSE daylight
22 May - 14:07:47 10° WSW 14:11:01 11° SW 14:14:01 10° SW daylight
23 May - 03:20:56 10° SSW 03:30:42 31° SE 03:43:47 10° E visible
23 May - 05:26:49 10° SW 05:40:15 61° SSE 05:57:31 10° E visible
23 May - 07:35:57 10° W 07:52:10 75° S 08:09:14 10° E visible
23 May - 09:47:05 10° W 10:04:19 63° SSW 10:18:59 10° SE visible
23 May - 12:00:16 10° W 12:14:24 33° SW 12:25:24 10° SSE daylight
